TimeCST,TemperatureF,Dew PointF,Humidity,Sea Level PressureIn,VisibilityMPH,Wind Direction,Wind SpeedMPH,Gust SpeedMPH,PrecipitationIn,Events,Conditions,WindDirDegrees,DateUTC
12:19 AM,69.8,64.4,83,29.79,10.0,NNE,9.2,-,N/A,,Overcast,30,2013-02-22 06:19:00
12:52 AM,70.0,64.9,84,29.80,9.0,NNE,6.9,-,N/A,,Overcast,30,2013-02-22 06:52:00
1:52 AM,69.1,66.0,90,29.78,7.0,NNE,8.1,-,N/A,,Overcast,30,2013-02-22 07:52:00
2:52 AM,69.1,64.9,87,29.76,7.0,NE,9.2,-,N/A,,Overcast,50,2013-02-22 08:52:00
3:52 AM,69.1,66.0,90,29.77,4.0,NE,6.9,-,N/A,,Overcast,50,2013-02-22 09:52:00
4:34 AM,69.8,66.2,88,29.75,3.0,NE,8.1,-,N/A,,Overcast,50,2013-02-22 10:34:00
4:52 AM,69.1,66.9,93,29.76,3.0,NE,9.2,-,N/A,,Overcast,40,2013-02-22 10:52:00
5:52 AM,69.8,66.2,88,29.77,5.0,NNE,6.9,-,N/A,,Overcast,30,2013-02-22 11:52:00
6:02 AM,69.8,66.2,88,29.78,5.0,NNE,5.8,-,N/A,,Overcast,20,2013-02-22 12:02:00
6:52 AM,71.1,66.9,87,29.80,6.0,Calm,Calm,-,N/A,,Overcast,0,2013-02-22 12:52:00
7:36 AM,69.8,68.0,94,29.82,2.5,NE,5.8,-,N/A,,Overcast,50,2013-02-22 13:36:00
7:37 AM,69.8,68.0,94,29.82,0.5,NE,5.8,-,N/A,Fog,Fog,50,2013-02-22 13:37:00
7:52 AM,70.0,68.0,93,29.82,0.5,ENE,5.8,-,N/A,Fog,Fog,60,2013-02-22 13:52:00
8:42 AM,69.8,69.8,100,29.84,1.5,NE,3.5,-,N/A,,Overcast,40,2013-02-22 14:42:00
8:52 AM,71.1,69.1,93,29.85,1.5,ENE,3.5,-,N/A,,Overcast,60,2013-02-22 14:52:00
9:25 AM,71.6,69.8,94,29.86,2.0,NNE,3.5,-,N/A,,Overcast,20,2013-02-22 15:25:00
9:50 AM,71.6,68.0,88,29.86,3.0,NNE,8.1,-,N/A,,Overcast,30,2013-02-22 15:50:00
9:52 AM,72.0,68.0,87,29.86,3.0,NNE,9.2,-,N/A,,Overcast,30,2013-02-22 15:52:00
10:52 AM,72.0,64.9,78,29.86,3.0,North,13.8,-,N/A,,Haze,360,2013-02-22 16:52:00
10:54 AM,71.6,64.4,78,29.86,4.0,North,11.5,-,N/A,,Haze,10,2013-02-22 16:54:00
11:08 AM,71.6,64.4,78,29.86,5.0,North,13.8,-,N/A,,Haze,10,2013-02-22 17:08:00
11:52 AM,73.9,64.9,73,29.85,5.0,NNE,13.8,-,N/A,,Haze,30,2013-02-22 17:52:00
12:23 PM,78.8,64.4,61,29.84,10.0,NE,12.7,-,N/A,,Mostly Cloudy,40,2013-02-22 18:23:00
12:52 PM,77.0,64.9,66,29.83,9.0,NNE,11.5,-,N/A,,Overcast,30,2013-02-22 18:52:00
1:52 PM,75.9,64.0,67,29.80,10.0,NNE,17.3,20.7,N/A,,Mostly Cloudy,30,2013-02-22 19:52:00
2:52 PM,77.0,62.1,60,29.79,10.0,NE,12.7,-,N/A,,Mostly Cloudy,40,2013-02-22 20:52:00
3:52 PM,75.9,62.1,62,29.78,10.0,NNE,16.1,-,N/A,,Mostly Cloudy,30,2013-02-22 21:52:00
4:52 PM,73.0,60.1,64,29.79,10.0,NE,17.3,-,N/A,,Overcast,50,2013-02-22 22:52:00
5:52 PM,70.0,60.1,71,29.81,10.0,NE,16.1,-,N/A,,Overcast,40,2013-02-22 23:52:00
6:52 PM,68.0,59.0,73,29.83,10.0,NNE,12.7,-,N/A,,Overcast,30,2013-02-23 00:52:00
7:52 PM,68.0,60.1,76,29.84,10.0,NNE,10.4,-,N/A,,Overcast,30,2013-02-23 01:52:00
8:52 PM,68.0,61.0,78,29.86,10.0,NE,11.5,-,N/A,,Overcast,40,2013-02-23 02:52:00
9:06 PM,68.0,60.8,78,29.86,10.0,NNE,10.4,-,N/A,,Overcast,30,2013-02-23 03:06:00
9:52 PM,68.0,61.0,78,29.87,10.0,NNE,12.7,-,N/A,,Overcast,20,2013-02-23 03:52:00
10:19 PM,66.2,60.8,83,29.87,10.0,NNE,12.7,-,N/A,,Overcast,20,2013-02-23 04:19:00
10:52 PM,66.9,61.0,81,29.88,10.0,NNE,9.2,-,N/A,,Overcast,20,2013-02-23 04:52:00
11:52 PM,66.0,60.1,81,29.88,10.0,NNE,16.1,-,N/A,,Overcast,20,2013-02-23 05:52:00